Regional Weather Roundup
Issued by NWS Cleveland, OH

Home | Current Version | Previous Version | Text Only | Print | Product List | Glossary On
Versions: 1 2 3 4 5 6 7 8 9 10 11 12 13 14 15 16 17 18 19 20 21 22 23 24 25 26 27 28 29 30 31 32 33 34 35 36 37 38 39 40 41 42 43 44 45 46 47 48 49 50
000
ASUS41 KCLE 300210
RWRCLE
OHIO REGIONAL WEATHER ROUNDUP
NATIONAL WEATHER SERVICE CLEVELAND, OH
900 PM EST THU JAN 29 2015

NOTE: "FAIR" INDICATES FEW OR NO CLOUDS BELOW 12,000 FEET WITH NO
SIGNIFICANT WEATHER AND/OR OBSTRUCTIONS TO VISIBILITY.

OHZ001>008-015>018-024>027-034-035-043-044-300300-
   NORTHWEST OHIO

CITY           SKY/WX    TMP DP  RH WIND       PRES   REMARKS
DEFIANCE       CLOUDY    34  28  79 W13       30.07R WCI  25
FINDLAY        CLOUDY    33  29  85 NW13      30.03R FOG     WCI  24
TOLEDO EXPRESS CLOUDY    32  28  85 W9        30.02R WCI  24
TOLEDO EXEC    CLOUDY    34  27  75 NW14      30.03R WCI  25
LIMA           CLOUDY    34  29  82 NW17      30.05R WCI  23
$$

OHZ009>014-019>023-028>033-038-089-300300-
   NORTHEAST OHIO

CITY           SKY/WX    TMP DP  RH WIND       PRES   REMARKS
CLE-HOPKINS    LGT SNOW  31  28  89 NW16      29.98R FOG     WCI  20
CLE-LAKEFRONT  CLOUDY    32  29  88 W18       29.95R WCI  20
CUY CO. ARPT     N/A     30  30 100 NW14G23   29.94R FOG     WCI  20
LORAIN-ELYRIA  CLOUDY    31  29  92 NW17      29.98R WCI  19
ASHTABULA      LGT SNOW  29  26  89 NW15G21   29.89R FOG     WCI  18
AKRON-CANTON   LGT SNOW  32  28  85 NW13      29.92R FOG     WCI  22
WOOSTER        LGT SNOW  31  28  89 NW16G23   29.96R FOG     WCI  20
MANSFIELD      CLOUDY    31  29  92 NW15      29.96R FOG     WCI  20
YOUNGSTOWN     LGT SNOW  30  28  92 NW13      29.88R FOG     WCI  20
$$

OHZ042-051>053-060>062-070>072-077>081-300300-
  SOUTHWEST OHIO

CITY           SKY/WX    TMP DP  RH WIND       PRES   REMARKS
CINC-COVINGTON CLOUDY    34  30  85 NW15G22   30.14R FOG     WCI  24
CINC-LUNKEN    CLOUDY    35  30  82 W8        30.16R WCI  29
HAMILTON       CLOUDY    35  30  82 NW14      30.15R WCI  26
DAYTON         LGT SNOW  33  30  88 NW20      30.09R FOG     WCI  21
WRIGHT-PAT AFB LGT SNOW  33  31  92 W13G18    30.08R FOG     WCI  23
DAYTON GENERAL CLOUDY    33  30  88 W13       30.09R WCI  24
WILMINGTON     MIX PCPN  32  28  85 W14       30.08R FOG     WCI  22
$$

OHZ036-037-039>041-045>050-054>059-063>069-073>076-082>088-300300-
  CENTRAL AND SOUTHEAST OHIO

CITY           SKY/WX    TMP DP  RH WIND       PRES   REMARKS
COLUMBUS       LGT SNOW  32  30  92 W16       30.02R FOG     WCI  21
OSU AIRPORT    LGT SNOW  33  30  88 NW9       30.03R VSB 1   WCI  25
BOLTON FIELD   CLOUDY    33  31  96 W12       30.04R FOG     WCI  24
RICKENBACK AFB CLOUDY    33  31  91 W15       30.04R WCI  23
NEWARK         CLOUDY    34  30  85 NW12G21   30.01R WCI  25
MARION         CLOUDY    32  29  88 NW15      30.01R FOG     WCI  22
LANCASTER      MIX PCPN  34  31  88 W12G18    30.04R FOG     WCI  25
ZANESVILLE     CLOUDY    34  30  85 W10       29.99R FOG     WCI  26
NEW PHILLY     LGT SNOW  35  29  78 W9G17     29.96R WCI  28
$$



USA.gov is the U.S. government's official web portal to all federal, state and local government web resources and services.